When you browse on this site, cookies collect data to enhance your experience and personalize the content and advertising you see.
Visit our Privacy Policy to learn more. By continuing to use the site, you agree to this use of cookies and data.
  • In Hungary
  • List of Countries
  • For 7 days
  • Water Temperature
  • Satellite Maps
  • Weather Map
  • News
  • Weather Widgets
  • user-avatar
    Login

    Hourly Weather Puerto Ayacucho

    Today, 17 January, Thursday

    Time Temperature Precipitation Wind Pressure Humidity
    00:00 +28°C° 0 mm 1 mps 753 mmHg 66%
    01:00 +28°C° 0 mm 1 mps 753 mmHg 66%
    02:00 +27°C° 0 mm 1 mps 753 mmHg 66%
    03:00 +27°C° 0 mm 1 mps 753 mmHg 67%
    04:00 +27°C° 0 mm 1 mps 753 mmHg 67%
    05:00 +27°C° 0 mm 1 mps 753 mmHg 66%
    06:00 +28°C° 0 mm 1 mps 753 mmHg 65%
    07:00 +29°C° 0 mm 1 mps 754 mmHg 63%
    08:00 +30°C° 0 mm 1 mps 754 mmHg 58%
    09:00 +32°C° 0 mm 1 mps 754 mmHg 54%
    10:00 +34°C° 0 mm 1 mps 754 mmHg 50%
    11:00 +34°C° 0 mm 1 mps 753 mmHg 48%
    12:00 +35°C° 0 mm 1 mps 752 mmHg 47%
    13:00 +36°C° 0 mm 1 mps 751 mmHg 45%
    14:00 +36°C° 0.2 mm 1 mps 751 mmHg 47%
    15:00 +35°C° 0.2 mm 1 mps 751 mmHg 49%
    16:00 +35°C° 0.2 mm 1 mps 750 mmHg 50%
    17:00 +34°C° 0.7 mm 2 mps 751 mmHg 59%
    18:00 +31°C° 0.7 mm 2 mps 751 mmHg 67%
    19:00 +28°C° 0.7 mm 3 mps 751 mmHg 76%
    20:00 +28°C° 0.5 mm 3 mps 752 mmHg 77%
    21:00 +28°C° 0.5 mm 2 mps 752 mmHg 77%
    22:00 +27°C° 0.5 mm 2 mps 753 mmHg 78%
    23:00 +27°C° 0.2 mm 2 mps 752 mmHg 77%

    Tomorrow, 18 January, Friday

    Time Temperature Precipitation Wind Pressure Humidity
    00:00 +27°C° 0.2 mm 2 mps 752 mmHg 76%
    01:00 +27°C° 0.2 mm 1 mps 752 mmHg 75%
    02:00 +27°C° 0.2 mm 1 mps 752 mmHg 76%
    03:00 +27°C° 0.2 mm 1 mps 752 mmHg 77%
    04:00 +26°C° 0.2 mm 1 mps 752 mmHg 77%
    05:00 +27°C° 0 mm 1 mps 752 mmHg 76%
    06:00 +27°C° 0 mm 1 mps 752 mmHg 75%
    07:00 +28°C° 0 mm 1 mps 753 mmHg 73%
    08:00 +29°C° 0 mm 1 mps 753 mmHg 68%
    09:00 +31°C° 0 mm 2 mps 753 mmHg 63%
    10:00 +34°C° 0 mm 2 mps 753 mmHg 57%
    11:00 +35°C° 0 mm 2 mps 752 mmHg 55%
    12:00 +36°C° 0 mm 2 mps 751 mmHg 52%
    13:00 +36°C° 0 mm 2 mps 750 mmHg 50%
    14:00 +36°C° 0.5 mm 2 mps 750 mmHg 54%
    15:00 +35°C° 0.5 mm 2 mps 749 mmHg 58%
    16:00 +34°C° 0.5 mm 2 mps 749 mmHg 63%
    17:00 +32°C° 0.3 mm 2 mps 749 mmHg 67%
    18:00 +30°C° 0.3 mm 3 mps 750 mmHg 72%
    19:00 +29°C° 0.3 mm 3 mps 750 mmHg 76%
    20:00 +28°C° 0.7 mm 2 mps 751 mmHg 77%
    21:00 +28°C° 0.7 mm 2 mps 751 mmHg 78%
    22:00 +27°C° 0.7 mm 2 mps 752 mmHg 79%
    23:00 +27°C° 0 mm 1 mps 752 mmHg 79%

    Day after tomorrow, 19 January, Saturday

    Time Temperature Precipitation Wind Pressure Humidity
    00:00 +27°C° 0 mm 1 mps 752 mmHg 78%
    01:00 +27°C° 0 mm 1 mps 752 mmHg 77%
    02:00 +27°C° 0.2 mm 1 mps 752 mmHg 79%
    03:00 +27°C° 0.2 mm 1 mps 751 mmHg 80%
    04:00 +26°C° 0.2 mm 1 mps 751 mmHg 81%
    05:00 +27°C° 0 mm 1 mps 752 mmHg 80%
    06:00 +27°C° 0 mm 1 mps 752 mmHg 79%
    07:00 +27°C° 0 mm 1 mps 753 mmHg 78%
    08:00 +29°C° 0 mm 1 mps 753 mmHg 72%
    09:00 +31°C° 0 mm 1 mps 753 mmHg 66%
    10:00 +32°C° 0 mm 2 mps 753 mmHg 60%
    11:00 +34°C° 0 mm 2 mps 752 mmHg 57%
    12:00 +35°C° 0 mm 2 mps 751 mmHg 54%
    13:00 +36°C° 0 mm 2 mps 750 mmHg 52%
    14:00 +36°C° 0.3 mm 2 mps 750 mmHg 55%
    15:00 +35°C° 0.3 mm 2 mps 749 mmHg 59%
    16:00 +34°C° 0.3 mm 3 mps 748 mmHg 63%
    17:00 +33°C° 0 mm 3 mps 749 mmHg 66%
    18:00 +30°C° 0 mm 3 mps 750 mmHg 70%
    19:00 +29°C° 0 mm 3 mps 750 mmHg 73%
    20:00 +29°C° 0.1 mm 2 mps 751 mmHg 71%
    21:00 +29°C° 0.1 mm 2 mps 751 mmHg 70%
    22:00 +28°C° 0.1 mm 1 mps 752 mmHg 68%
    23:00 +28°C° 0.1 mm 1 mps 752 mmHg 69%

    20 January, Sunday

    Time Temperature Precipitation Wind Pressure Humidity
    00:00 +28°C° 0.1 mm 1 mps 752 mmHg 69%
    01:00 +28°C° 0.1 mm 1 mps 751 mmHg 70%
    02:00 +27°C° 0.3 mm 1 mps 751 mmHg 72%
    03:00 +27°C° 0.3 mm 1 mps 751 mmHg 74%
    04:00 +27°C° 0.3 mm 1 mps 751 mmHg 77%
    05:00 +27°C° 0.4 mm 1 mps 751 mmHg 76%
    06:00 +25°C° 0.4 mm 0 mps 752 mmHg 76%
    07:00 +26°C° 0.4 mm 0 mps 753 mmHg 76%
    08:00 +29°C° 0.2 mm 1 mps 753 mmHg 71%
    09:00 +31°C° 0.2 mm 1 mps 753 mmHg 67%
    10:00 +32°C° 0.2 mm 1 mps 753 mmHg 62%
    11:00 +33°C° 0 mm 1 mps 752 mmHg 58%
    12:00 +35°C° 0 mm 2 mps 751 mmHg 54%
    13:00 +36°C° 0 mm 2 mps 750 mmHg 50%
    14:00 +36°C° 0.8 mm 2 mps 750 mmHg 55%
    15:00 +35°C° 0.8 mm 2 mps 749 mmHg 61%
    16:00 +34°C° 0.8 mm 2 mps 749 mmHg 66%
    17:00 +32°C° 0.3 mm 2 mps 749 mmHg 71%
    18:00 +30°C° 0.3 mm 3 mps 750 mmHg 75%
    19:00 +28°C° 0.3 mm 3 mps 751 mmHg 80%
    20:00 +28°C° 0.6 mm 2 mps 751 mmHg 80%
    21:00 +28°C° 0.6 mm 2 mps 752 mmHg 80%
    22:00 +27°C° 0.6 mm 2 mps 752 mmHg 79%
    23:00 +27°C° 0.3 mm 2 mps 752 mmHg 79%

    21 January, Monday

    Time Temperature Precipitation Wind Pressure Humidity
    00:00 +27°C° 0.3 mm 1 mps 752 mmHg 78%
    01:00 +27°C° 0.3 mm 1 mps 751 mmHg 78%
    02:00 +27°C° 0.2 mm 1 mps 751 mmHg 79%
    03:00 +27°C° 0.2 mm 1 mps 751 mmHg 79%
    04:00 +24°C° 0.2 mm 0 mps 751 mmHg 80%
    05:00 +25°C° 0 mm 0 mps 752 mmHg 79%
    06:00 +27°C° 0 mm 1 mps 752 mmHg 78%
    07:00 +28°C° 0 mm 1 mps 753 mmHg 77%
    08:00 +29°C° 0 mm 1 mps 753 mmHg 72%
    09:00 +31°C° 0 mm 1 mps 753 mmHg 67%
    10:00 +32°C° 0 mm 2 mps 753 mmHg 62%
    11:00 +34°C° 0 mm 2 mps 752 mmHg 58%
    12:00 +34°C° 0 mm 1 mps 751 mmHg 54%
    13:00 +35°C° 0 mm 1 mps 750 mmHg 51%
    14:00 +35°C° 0.3 mm 1 mps 750 mmHg 52%
    15:00 +36°C° 0.3 mm 2 mps 750 mmHg 53%
    16:00 +36°C° 0.3 mm 2 mps 749 mmHg 54%
    17:00 +34°C° 0.1 mm 2 mps 750 mmHg 60%
    18:00 +31°C° 0.1 mm 2 mps 750 mmHg 65%
    19:00 +30°C° 0.1 mm 2 mps 751 mmHg 71%
    20:00 +29°C° 0.1 mm 2 mps 752 mmHg 70%
    21:00 +29°C° 0.1 mm 2 mps 752 mmHg 69%
    22:00 +29°C° 0.1 mm 1 mps 753 mmHg 69%
    23:00 +28°C° 0 mm 1 mps 752 mmHg 70%

    22 January, Tuesday

    Time Temperature Precipitation Wind Pressure Humidity
    00:00 +28°C° 0 mm 1 mps 752 mmHg 71%
    01:00 +28°C° 0 mm 1 mps 752 mmHg 72%
    02:00 +27°C° 0 mm 1 mps 752 mmHg 72%
    03:00 +27°C° 0 mm 1 mps 752 mmHg 72%
    04:00 +27°C° 0 mm 1 mps 752 mmHg 72%
    05:00 +27°C° 0 mm 1 mps 752 mmHg 70%
    06:00 +27°C° 0 mm 1 mps 753 mmHg 69%
    07:00 +28°C° 0 mm 1 mps 753 mmHg 68%
    08:00 +30°C° 0 mm 2 mps 753 mmHg 61%
    09:00 +31°C° 0 mm 2 mps 753 mmHg 54%
    10:00 +34°C° 0 mm 2 mps 753 mmHg 48%
    11:00 +35°C° 0 mm 2 mps 752 mmHg 45%
    12:00 +36°C° 0 mm 2 mps 752 mmHg 42%
    13:00 +37°C° 0 mm 2 mps 751 mmHg 40%
    14:00 +36°C° 0 mm 1 mps 750 mmHg 41%
    15:00 +36°C° 0 mm 1 mps 750 mmHg 42%
    16:00 +36°C° 0 mm 1 mps 749 mmHg 43%
    17:00 +34°C° 0 mm 1 mps 750 mmHg 49%
    18:00 +34°C° 0 mm 2 mps 751 mmHg 55%
    19:00 +31°C° 0 mm 2 mps 751 mmHg 61%
    20:00 +30°C° 0 mm 2 mps 752 mmHg 62%
    21:00 +30°C° 0 mm 2 mps 752 mmHg 62%
    22:00 +29°C° 0 mm 1 mps 752 mmHg 63%
    23:00 +29°C° 0 mm 1 mps 752 mmHg 64%
    Show more